AI4ZL Weather Reports


time (UTC)temp
C
wind
direction
speed
KPH
gust
KPH
rain 1hr
cm
rain 24hr
cm
rain mn
cm
humidity
%
barometer
mb
20260506035029 10 341 0.0 3.2 0.23 2.64 2.64 99 1010.7
20260506034038 10 9 0.0 3.2 0.23 2.64 2.64 99 1010.5
20260506033022 10 351 0.0 1.6 0.23 2.62 2.62 99 1010.3
20260506032047 10 288 0.0 6.4 0.15 2.51 2.51 99 1010.2
20260506031032 10 0.0 1.6 0.13 2.46 2.46 99 1010.1
20260506030020 10 307 0.0 6.4 0.10 2.44 2.44 99 1009.7
20260506025024 11 342 1.6 9.7 0.08 2.41 2.41 99 1009.9
20260506024029 11 337 1.6 6.4 0.13 2.41 2.41 99 1009.5
20260506023018 11 32 0.0 4.8 0.13 2.39 2.39 99 1009.3
20260506022023 11 334 1.6 11.3 0.10 2.36 2.36 99 1009.2
20260506021027 11 301 3.2 11.3 0.13 2.34 2.34 99 1009.1
20260506020053 12 354 1.6 6.4 0.13 2.34 2.34 99 1008.6
20260506015021 12 338 0.0 3.2 0.13 2.34 2.34 99 1008.2
20260506014026 12 0.0 0.0 0.10 2.29 2.29 99 1008.3
20260506013030 12 0.0 0.0 0.08 2.26 2.26 99 1008.4
20260506012019 12 0.0 0.0 0.10 2.26 2.26 99 1008.3
20260506011024 12 0.0 0.0 0.13 2.21 2.21 99 1008.0
20260506010029 12 267 0.0 1.6 0.13 2.21 2.21 99 1008.3
20260506005037 12 0.0 0.0 0.15 2.21 2.21 99 1008.2
20260506004042 12 0.0 0.0 0.15 2.18 2.18 99 1008.1
20260506003026 12 65 0.0 1.6 0.18 2.18 2.18 99 1008.1
20260506002031 13 343 0.0 1.6 0.18 2.16 2.16 99 1008.5
20260506001019 13 0.0 0.0 0.15 2.08 2.08 99 1008.4
20260506000044 13 0.0 0.0 0.25 2.08 2.08 99 1008.2
20260505235049 13 0.0 1.6 0.43 2.06 2.06 99 1008.0
20260505234017 13 68 0.0 4.8 0.48 2.03 2.03 99 1007.9
20260505233022 13 339 0.0 3.2 0.48 2.01 2.01 99 1008.4
20260505232027 13 316 0.0 3.2 0.46 1.98 1.98 99 1008.3
20260505231032 13 308 0.0 6.4 0.43 1.93 1.93 99 1008.6
20260505230020 14 332 6.4 14.5 0.33 1.83 1.83 99 1008.9
20260505225133 17 315 6.4 14.5 0.15 1.63 1.63 99 1008.7
20260505224111 17 272 4.8 6.4 0.13 1.55 1.55 99 1008.5
20260505223035 17 254 1.6 9.7 0.10 1.52 1.52 99 1008.4
20260505222043 17 232 3.2 6.4 0.13 1.52 1.52 99 1008.4
20260505221028 17 203 4.8 9.7 0.10 1.50 1.50 99 1008.5
20260505220032 17 227 3.2 11.3 0.10 1.50 1.50 99 1008.5
20260505215020 17 200 1.6 6.4 0.08 1.47 1.47 99 1008.5
20260505214026 17 191 0.0 3.2 0.05 1.42 1.42 99 1008.4
20260505213030 17 198 1.6 4.8 0.05 1.42 1.42 99 1008.4
20260505212018 17 240 0.0 4.8 0.05 1.40 1.40 99 1008.6
20260505211024 17 220 3.2 4.8 0.05 1.40 1.40 99 1008.5
20260505210028 17 254 0.0 4.8 0.05 1.40 1.40 99 1008.3
20260505205016 17 219 1.6 4.8 0.05 1.40 1.40 99 1008.5
20260505204022 17 226 1.6 4.8 0.03 1.37 1.37 99 1008.5
20260505203026 17 217 1.6 6.4 0.03 1.37 1.37 99 1008.5
20260505202031 17 213 1.6 6.4 0.03 1.35 1.35 99 1008.5
20260505201040 17 206 4.8 11.3 0.03 1.35 1.35 99 1008.6
20260505200024 17 210 3.2 11.3 0.03 1.35 1.35 99 1008.8
20260505195029 17 204 3.2 11.3 0.03 1.35 1.35 99 1008.6
20260505194017 17 183 1.6 4.8 0.03 1.35 1.35 99 1008.7
20260505193043 16 195 1.6 9.7 0.03 1.35 1.35 99 1009.0
20260505192027 16 207 3.2 9.7 0.00 1.32 1.32 99 1009.2
20260505191032 16 213 3.2 9.7 0.00 1.32 1.32 99 1009.3
20260505190020 16 208 1.6 6.4 0.00 1.32 1.32 99 1009.1
20260505185025 16 191 3.2 6.4 0.00 1.32 1.32 99 1009.0
20260505184030 16 102 1.6 6.4 0.00 1.32 1.32 99 1009.1
20260505183039 16 142 1.6 6.4 0.00 1.32 1.32 99 1009.3
20260505182023 16 195 3.2 9.7 0.00 1.32 1.32 99 1009.4
20260505181027 16 79 1.6 4.8 0.00 1.32 1.32 99 1009.5
20260505180033 16 191 3.2 6.4 0.03 1.32 1.32 99 1009.6
20260505175021 16 220 3.2 11.3 0.05 1.32 1.32 99 1009.8
20260505174046 16 84 1.6 6.4 0.23 1.32 1.32 99 1010.1
20260505173112 16 119 0.0 3.2 0.25 1.32 1.32 99 1010.1
20260505172039 16 277 0.0 1.6 0.25 1.32 1.32 99 1010.3
20260505171024 15 86 0.0 1.6 0.25 1.32 1.32 99 1010.3
20260505170029 15 153 0.0 3.2 0.25 1.30 1.30 99 1010.4
20260505165016 15 204 1.6 9.7 0.23 1.27 1.27 99 1010.7
20260505164022 15 180 4.8 9.7 0.08 1.09 1.09 99 1010.7
20260505163027 16 103 1.6 6.4 0.08 1.07 1.07 99 1010.5
20260505162053 15 109 1.6 4.8 0.08 1.07 1.07 99 1010.5
20260505161020 15 184 1.6 3.2 0.10 1.07 1.07 99 1010.5
20260505153022 15 126 1.6 6.4 0.03 0.99 0.99 99 1010.6
20260505152028 15 89 0.0 6.4 0.05 0.99 0.99 99 1010.4
20260505151032 15 0.0 0.0 0.03 0.97 0.97 99 1010.6
20260505125018 18 182 3.2 6.4 0.00 0.00 0.00 75 1009.9
20260505124022 17 198 4.8 12.9 0.00 0.00 0.00 75 1009.8
20260505123027 17 200 3.2 9.7 0.00 0.00 0.00 75 1009.7
20260505122032 17 207 3.2 4.8 0.00 0.00 0.00 75 1009.5
20260505121020 17 319 1.6 3.2 0.00 0.00 0.00 76 1009.4
20260505120025 17 123 1.6 11.3 0.00 0.00 0.00 75 1009.2
20260505115050 17 178 3.2 9.7 0.00 0.00 0.00 75 1009.3
20260505114017 17 157 3.2 4.8 0.00 0.00 0.00 75 1009.1
20260505113023 17 218 0.0 3.2 0.00 0.00 0.00 76 1009.0
20260505112028 16 159 1.6 6.4 0.00 0.00 0.00 75 1009.0
20260505111033 16 103 1.6 4.8 0.00 0.00 0.00 75 1008.8
20260505102043 16 100 1.6 3.2 0.00 0.00 0.00 76 1009.1
20260505101028 16 243 0.0 1.6 0.00 0.00 0.00 76 1009.2
20260505100033 16 96 0.0 3.2 0.00 0.00 0.00 75 1009.2
20260505095021 16 83 0.0 1.6 0.00 0.00 0.00 74 1009.4
20260505094026 17 200 1.6 4.8 0.00 0.00 0.00 72 1009.6
20260505093052 17 207 1.6 4.8 0.00 0.00 0.00 71 1009.5
20260505092036 17 209 1.6 4.8 0.00 0.00 0.00 72 1009.5
20260505091024 17 181 1.6 6.4 0.00 0.00 0.00 72 1009.4
20260505090029 17 201 3.2 6.4 0.00 0.00 0.00 71 1009.6
20260505085017 17 213 0.0 4.8 0.00 0.00 0.00 72 1009.6
20260505084022 17 200 1.6 3.2 0.00 0.00 0.00 72 1009.8
20260505083048 17 295 0.0 3.2 0.00 0.00 0.00 72 1009.4
20260505082031 17 202 1.6 4.8 0.00 0.00 0.00 71 1009.4
20260505081020 17 210 3.2 4.8 0.00 0.00 0.00 69 1009.6
20260505080025 17 195 3.2 4.8 0.00 0.00 0.00 70 1009.5
20260505075030 17 199 3.2 4.8 0.00 0.00 0.00 69 1009.6
20260505074038 17 207 1.6 6.4 0.00 0.00 0.00 69 1009.4
20260505073022 18 199 1.6 6.4 0.00 0.00 0.00 68 1009.1
20260505072109 18 191 3.2 6.4 0.00 0.00 0.00 68 1008.9
20260505071033 18 192 1.6 4.8 0.00 0.00 0.00 67 1008.9
20260505070021 18 211 3.2 9.7 0.00 0.00 0.00 66 1009.2
20260505065025 18 208 4.8 14.5 0.00 0.00 0.00 65 1009.3
20260505064030 18 198 4.8 11.3 0.00 0.00 0.00 66 1009.4
20260505063019 18 216 3.2 6.4 0.00 0.00 0.00 65 1009.3
20260505062023 18 209 4.8 11.3 0.00 0.00 0.00 64 1009.3
20260505061028 18 177 4.8 11.3 0.00 0.00 0.00 64 1008.9
20260505060037 18 209 4.8 11.3 0.00 0.00 0.00 64 1009.1
20260505055021 18 196 4.8 12.9 0.00 0.00 0.00 63 1009.4
20260505054027 19 201 4.8 9.7 0.00 0.00 0.00 63 1009.7
20260505053052 19 187 3.2 11.3 0.00 0.00 0.00 63 1009.7
20260505052020 19 202 4.8 9.7 0.00 0.00 0.00 63 1009.7
20260505051024 19 185 4.8 9.7 0.00 0.00 0.00 63 1009.9
20260505041020 21 203 9.7 14.5 0.00 0.00 0.00 58 1009.6
20260505040025 21 196 6.4 16.1 0.00 0.00 0.00 58 1009.9